Theta_e
338 336 340 336 329 323 319 319 302 310 306 296 294 297 294 303 302 300 299 302 300 304 306 306 307 309 306 304 304 311 311 305 308 302 303 325 338 340 342 342 343 343 344 346 346 346 347 348 347 346 347 347 347 349 349 349 349 349 349 349 347 346 345 345 345 345 345 344 343 342 342 343 342 341 340 339 339 340 339 340 340 342 343 344 344 345 345 343 343 342 341 341 341 339 339 340 340
333 331 325 325 323 326 315 316 307 300 303 294 294 297 298 300 301 299 299 303 303 304 305 304 308 309 309 306 305 311 311 317 320 322 329 336 339 339 342 342 342 343 345 346 347 347 347 347 347 346 347 347 348 349 349 348 349 349 349 348 347 345 345 345 345 345 345 342 340 341 343 341 339 339 339 338 339 338 339 339 339 341 345 346 346 346 344 342 342 342 342 342 340 338 337 338 339
326 325 324 323 320 319 314 314 301 298 296 290 294 296 300 298 299 303 304 304 305 305 306 306 308 309 308 308 305 307 305 322 325 329 330 336 331 334 341 342 342 343 344 345 346 347 347 346 346 347 348 348 349 349 349 349 349 349 349 347 346 345 344 344 344 345 344 341 341 341 341 340 339 339 338 337 338 338 339 339 339 343 345 345 344 343 343 342 341 341 341 341 341 339 336 338 338
327 326 323 323 317 320 310 307 303 297 296 292 291 299 300 300 302 303 304 306 305 305 307 306 305 310 306 306 305 311 314 318 327 328 326 331 331 337 341 342 343 344 344 345 345 346 346 345 346 348 348 348 349 349 349 349 349 348 348 347 346 345 344 344 344 344 342 343 342 340 339 339 338 337 337 338 338 337 338 338 340 341 342 341 341 340 341 340 340 340 340 339 339 338 336 337 338
322 327 325 319 320 314 311 306 299 297 292 295 292 298 300 302 303 303 303 303 304 305 307 307 306 309 310 309 309 308 312 323 327 330 328 335 337 338 341 342 341 342 343 345 346 346 345 344 347 348 349 349 350 349 349 349 349 348 347 346 346 345 345 344 344 345 344 342 340 339 339 338 338 337 337 337 337 338 338 338 341 341 341 340 340 340 339 338 339 341 339 338 338 337 336 337 339
325 324 330 325 313 315 309 300 300 294 297 299 296 297 300 304 303 303 303 305 305 305 306 306 304 307 305 309 314 310 317 313 325 329 332 332 336 338 341 344 340 341 343 344 346 346 344 342 346 347 349 349 349 349 349 348 349 347 347 346 345 345 344 344 345 344 343 340 340 340 339 338 338 337 337 336 336 337 337 340 341 340 339 339 339 340 342 343 342 340 339 337 337 337 336 337 338
323 323 320 322 318 315 306 300 297 296 297 301 298 299 301 303 304 303 303 303 305 304 306 305 307 305 305 309 316 320 324 326 328 330 335 335 337 338 341 341 340 340 342 345 346 346 344 343 347 349 349 349 349 349 348 348 348 347 346 346 345 345 345 345 344 342 342 342 340 339 338 338 338 337 336 336 336 336 336 340 340 340 339 341 341 342 341 341 341 340 338 337 336 336 336 337 337
325 319 318 308 307 305 300 299 296 298 298 301 302 300 303 304 304 303 302 302 300 300 303 305 305 304 303 310 307 320 329 333 333 336 337 337 338 339 341 341 339 339 341 345 346 345 344 343 347 347 348 349 349 349 348 348 348 347 347 346 345 345 345 345 345 343 342 341 339 338 338 338 337 336 336 336 335 335 336 338 339 339 342 342 341 341 341 341 342 340 337 337 335 335 336 336 337
322 318 321 312 303 306 298 297 296 299 299 301 301 304 309 304 304 303 301 302 302 304 303 304 305 302 303 309 311 317 325 332 335 335 336 337 338 339 341 339 338 338 342 346 346 344 344 342 345 348 347 349 349 348 348 348 348 347 347 346 345 345 345 345 344 344 341 339 338 338 338 338 337 336 336 335 335 335 336 338 338 338 340 340 341 340 340 340 340 339 337 336 335 335 335 336 336
317 314 306 307 307 301 299 296 296 299 299 302 301 302 302 303 303 303 302 301 302 303 305 306 305 302 302 305 310 316 320 332 333 333 335 336 338 340 340 340 341 340 343 346 346 346 345 345 341 344 346 348 348 348 349 349 348 347 347 346 345 344 344 345 344 343 341 339 338 337 337 338 337 336 336 335 335 336 336 336 337 338 339 339 338 339 338 338 337 337 336 336 335 335 335 335 335
309 315 316 306 301 297 299 295 296 299 299 302 301 304 304 304 303 303 302 302 303 303 304 305 303 302 303 313 314 322 326 330 331 330 334 336 337 337 338 341 341 342 342 345 346 346 344 344 342 340 344 344 345 347 347 348 347 347 347 346 345 344 344 345 344 342 341 339 337 336 337 338 338 337 336 335 335 335 336 336 337 337 337 337 337 336 336 336 335 335 335 335 335 334 334 334 334
309 305 311 301 297 300 296 297 297 298 300 300 299 303 303 304 305 302 302 300 301 302 303 304 303 305 302 307 312 318 324 327 331 333 334 336 335 337 337 340 343 342 344 345 345 345 345 343 343 341 337 339 343 345 345 347 348 348 347 346 345 344 344 344 344 343 342 339 337 336 337 337 337 337 336 335 335 334 334 335 334 334 334 334 336 335 334 333 333 334 334 334 333 334 334 333 333
313 312 303 299 299 298 298 296 297 298 298 299 300 303 303 303 302 302 301 302 301 300 302 304 307 305 301 307 314 318 319 323 331 333 335 334 335 335 339 338 341 342 344 344 344 345 345 344 343 342 337 334 335 337 339 341 345 347 347 347 345 343 344 344 344 343 341 339 337 336 336 337 337 336 336 335 335 335 334 334 333 333 333 333 333 333 333 332 332 331 332 333 333 333 333 332 333
314 315 310 300 303 300 298 299 298 296 297 300 301 303 304 302 302 304 301 300 300 300 305 306 306 305 303 309 311 311 315 325 332 334 334 335 335 335 337 337 342 342 344 344 342 344 344 344 344 341 339 340 339 335 333 338 341 345 345 344 344 344 344 344 343 343 341 338 337 337 336 337 337 336 335 335 335 334 334 334 334 334 334 334 333 332 332 331 330 332 332 333 332 332 331 332 332
316 313 307 304 299 298 299 296 299 297 296 300 302 302 302 306 305 301 302 300 300 305 306 307 310 304 298 301 306 309 318 331 331 332 334 334 336 336 337 339 341 342 342 342 343 343 343 344 344 342 342 343 341 341 341 338 335 339 341 341 342 343 343 342 342 340 338 337 335 334 333 331 331 333 335 336 336 334 333 333 334 333 334 333 333 332 331 330 329 331 332 332 331 331 330 330 330
318 309 307 301 296 296 299 298 299 296 297 300 302 303 301 303 304 302 302 303 303 309 306 302 307 302 308 318 314 317 328 330 331 331 331 331 334 335 336 336 338 339 340 340 341 342 342 343 343 343 342 343 342 341 341 340 331 332 337 336 338 340 341 340 339 336 333 331 329 327 325 324 323 324 325 328 329 331 328 327 332 333 333 332 332 332 330 329 330 331 332 331 330 329 329 328 328
315 314 303 297 293 297 300 299 298 294 298 300 302 302 299 300 304 303 303 306 302 302 303 305 304 307 305 316 326 328 329 329 329 330 329 329 329 329 329 332 333 336 340 339 339 341 342 343 343 343 343 342 342 342 342 342 336 330 331 329 332 336 337 337 335 328 325 323 322 321 322 324 323 323 324 324 322 324 322 324 329 332 331 331 331 330 329 328 329 331 330 328 326 325 323 323 324
315 302 300 297 295 297 301 300 299 302 300 299 300 301 300 298 301 303 304 303 303 302 303 304 306 305 309 322 329 329 328 327 328 327 327 327 327 326 325 328 330 331 335 336 338 340 341 342 342 343 342 342 342 343 343 342 336 335 338 335 335 333 330 328 330 331 328 325 320 322 323 322 322 322 323 325 323 323 322 322 325 329 330 330 330 329 328 328 329 329 328 326 325 324 321 316 316
308 300 298 294 299 300 301 301 302 300 299 300 301 301 301 301 301 301 299 299 300 300 301 303 302 304 306 313 326 326 326 325 325 325 325 326 325 325 326 327 329 329 333 334 336 338 339 340 342 343 342 342 342 342 342 340 339 340 339 338 337 331 332 333 334 331 329 325 325 327 323 324 323 322 322 323 321 319 321 321 324 327 329 328 329 328 327 327 329 328 326 325 325 324 317 315 316
305 304 296 297 303 301 303 303 301 302 303 301 300 301 301 301 301 303 299 297 299 298 298 299 301 302 303 308 321 323 324 323 324 324 325 325 326 326 327 327 328 328 331 333 335 338 339 339 340 340 341 341 341 341 342 340 341 341 340 339 338 337 334 337 336 335 331 327 329 332 328 328 325 322 321 321 321 320 319 319 321 322 325 325 325 325 326 327 326 325 325 325 323 317 314 314 314
305 303 300 303 300 300 301 302 302 301 302 303 301 301 301 302 305 301 299 297 298 300 302 301 301 303 304 305 317 321 322 322 323 324 324 325 326 327 327 328 328 328 329 332 334 336 338 339 338 339 340 341 341 341 341 340 341 341 340 339 339 338 337 338 337 337 334 331 333 334 333 328 324 321 319 318 318 318 317 316 315 314 314 315 317 315 315 316 316 315 315 315 312 313 312 313 313
307 299 300 301 301 299 301 301 300 300 301 303 300 299 299 303 303 301 300 296 295 300 304 304 304 305 306 305 316 320 322 321 322 322 324 324 325 325 327 326 329 328 330 330 332 334 334 338 338 338 339 341 340 339 340 339 340 339 339 339 339 339 338 338 337 337 336 335 336 334 335 328 325 322 321 319 317 317 315 314 313 311 310 311 311 311 311 311 310 311 311 310 309 310 309 309 309
298 301 300 300 301 300 302 302 300 299 302 302 300 302 302 301 301 301 300 299 301 304 304 305 306 308 308 308 315 318 320 320 321 321 323 323 324 325 326 327 327 327 327 330 332 333 335 336 338 337 336 338 339 339 339 339 340 339 340 340 339 339 339 337 336 337 336 336 336 335 334 329 325 323 322 320 317 316 315 314 312 311 309 308 307 308 308 309 309 309 309 309 309 308 307 307 307
300 296 299 299 302 300 301 299 301 299 300 300 301 302 301 301 297 302 300 302 303 304 305 304 304 309 310 308 310 315 318 320 321 322 324 324 324 325 326 327 327 328 326 328 331 332 332 335 337 337 336 335 336 338 337 337 338 340 339 337 339 337 338 337 337 337 337 336 336 335 332 329 325 323 323 322 318 317 316 317 315 312 310 307 307 308 309 308 309 310 310 308 308 307 307 305 305
297 297 300 300 302 301 300 299 299 301 302 301 301 300 299 301 300 299 299 302 303 304 304 304 305 305 309 310 310 311 314 317 319 321 323 323 324 326 326 326 327 328 327 328 329 331 332 334 336 336 335 334 335 336 336 335 336 338 339 339 338 334 338 337 337 337 336 335 335 335 333 329 326 326 325 324 321 320 320 318 315 313 311 310 310 310 311 310 310 309 309 308 306 305 304 304 303
299 300 300 300 300 301 300 300 301 301 302 301 300 299 301 301 301 299 301 302 304 304 303 304 304 303 303 308 310 311 313 315 318 319 321 322 324 325 325 325 327 327 328 328 328 329 332 334 335 335 335 335 335 336 335 334 333 334 338 338 338 336 339 338 337 336 336 336 334 334 334 331 328 327 327 326 324 323 323 317 315 314 313 311 311 311 312 311 310 309 308 307 306 303 302 302 300
303 300 301 301 300 300 301 302 301 302 303 301 300 299 300 300 299 294 302 304 303 304 303 304 303 303 303 303 308 310 311 314 317 319 320 321 323 323 324 325 325 326 327 327 328 328 330 332 334 335 335 333 334 333 333 332 331 331 334 337 338 337 337 337 337 336 336 336 334 333 334 332 329 327 327 327 326 325 322 318 316 316 313 312 312 313 313 312 311 309 308 305 303 302 301 300 299
303 301 300 300 300 301 301 302 300 301 301 301 301 299 301 299 301 297 302 303 304 303 303 303 302 302 302 303 303 306 310 312 316 319 319 320 321 323 323 324 325 326 327 327 327 329 328 332 333 334 332 333 332 333 332 332 331 330 333 335 335 337 337 337 336 337 335 336 336 335 334 333 330 329 328 328 328 326 322 319 318 317 314 313 314 314 313 312 311 310 308 305 302 301 300 299 299
301 300 296 298 299 299 300 300 301 301 300 301 302 298 297 297 295 301 302 302 303 303 303 303 302 302 303 302 303 303 305 308 314 317 319 321 322 324 323 325 326 326 327 327 327 328 327 327 328 328 329 329 330 331 330 330 330 331 332 334 335 336 336 336 336 336 336 336 336 335 334 334 331 330 328 328 326 327 323 320 319 318 316 315 315 314 313 312 311 307 304 303 301 300 299 299 299
303 301 299 297 296 295 300 302 300 299 301 302 300 288 291 297 300 302 302 302 302 302 301 300 301 302 303 303 302 303 304 306 310 315 317 320 321 322 323 325 326 326 325 327 327 328 328 328 328 329 329 329 329 330 329 329 329 328 330 333 335 335 335 334 334 337 336 336 335 335 334 334 332 331 329 328 327 327 324 322 320 319 318 316 315 314 313 312 309 306 303 301 301 299 297 296 296
295 298 299 295 291 291 300 301 299 298 300 300 301 290 292 297 300 302 302 303 302 300 300 300 302 303 302 303 302 303 304 305 307 313 316 318 320 321 323 324 326 326 324 325 327 327 327 328 328 329 329 329 327 328 327 329 329 328 328 330 333 334 334 334 333 334 335 336 335 334 334 333 333 333 331 330 328 328 325 322 320 319 318 315 314 313 312 311 308 306 303 300 299 297 296 297 296
298 292 290 294 293 295 299 302 299 296 298 301 299 291 293 297 299 302 303 303 303 300 300 300 302 302 303 303 303 302 304 306 306 308 315 317 318 319 321 322 325 326 326 325 326 327 327 327 327 327 328 329 327 326 326 326 327 326 327 326 331 332 332 335 336 335 335 335 335 334 334 334 333 333 332 331 328 328 326 323 321 319 317 315 314 313 312 309 308 306 304 302 298 296 296 295 295
297 293 292 290 292 294 296 298 302 301 298 300 297 291 295 296 299 300 300 301 301 300 300 301 302 303 303 302 302 302 303 304 306 306 309 315 317 317 320 320 321 325 326 325 325 325 326 326 325 327 327 328 327 326 325 323 324 324 325 326 330 331 330 331 334 335 334 334 335 335 335 334 333 332 332 331 330 329 326 323 321 319 317 316 315 313 311 309 307 306 303 302 300 297 296 294 294
291 295 290 297 291 292 291 296 299 301 299 294 297 293 294 297 299 300 301 301 301 299 300 301 301 301 301 302 302 303 303 303 304 306 307 310 313 315 317 317 319 322 324 325 325 325 325 325 325 325 326 326 327 326 324 324 324 324 323 325 324 329 329 327 330 331 331 332 334 334 334 334 333 333 332 331 330 330 328 324 322 319 317 315 314 313 311 310 308 305 302 301 299 298 295 294 293
290 290 291 290 295 295 293 292 296 298 297 295 294 294 295 298 300 300 300 301 301 300 300 301 301 301 301 301 302 303 303 303 305 305 307 307 308 311 313 316 317 319 322 323 324 325 325 324 323 322 323 324 324 324 323 323 322 322 321 321 322 325 327 325 327 326 325 329 331 332 332 333 332 333 331 329 328 328 328 325 322 320 317 315 314 312 310 308 307 304 301 300 299 296 295 295 294
293 296 293 293 292 292 292 295 297 298 294 293 293 293 295 297 299 301 302 301 301 301 301 301 301 301 301 301 302 302 303 304 305 306 308 308 308 309 310 313 316 317 318 320 320 322 323 322 322 322 322 323 323 322 322 321 320 319 319 318 318 319 323 323 325 326 327 328 330 330 329 330 330 330 330 329 328 327 327 324 322 320 318 316 313 311 309 307 305 303 300 299 297 295 295 295 295
295 296 295 292 294 294 295 295 296 297 294 292 294 294 295 296 298 299 299 298 298 298 299 299 300 301 301 301 301 302 302 304 307 308 308 308 308 309 309 309 312 315 315 316 317 319 320 321 320 319 321 322 321 321 320 320 319 318 318 319 319 318 319 319 322 323 325 327 329 330 328 328 328 329 329 329 328 325 327 325 322 319 318 316 314 312 310 308 306 303 300 298 297 295 294 295 294
295 294 293 290 295 290 296 295 297 296 294 291 292 292 294 296 298 299 299 298 298 299 299 299 300 300 301 302 302 302 303 306 309 309 309 308 307 308 308 308 309 312 313 314 315 317 318 319 319 319 320 321 321 321 319 319 320 320 319 319 319 317 317 318 317 319 321 325 326 327 327 328 329 329 327 329 327 326 325 324 322 319 318 316 315 313 310 306 304 302 300 297 298 295 293 294 294
296 292 291 291 291 294 296 295 296 298 295 290 292 291 294 296 298 299 299 299 300 300 299 300 300 299 301 302 302 303 302 304 306 309 308 308 307 308 307 307 309 311 312 312 313 314 315 317 318 318 319 319 319 319 318 317 318 317 317 315 317 313 314 317 317 316 317 320 323 323 324 327 328 328 327 326 326 325 323 322 321 320 318 316 314 311 308 305 303 301 300 298 295 296 294 295 293
293 292 290 288 295 292 289 293 295 295 293 289 291 291 293 296 297 297 299 299 300 300 301 301 301 300 300 301 302 302 302 303 305 308 307 306 307 306 305 306 307 308 309 309 311 312 315 315 316 317 317 318 317 317 315 316 315 314 314 314 314 314 313 312 315 315 316 319 320 321 321 324 324 325 325 324 324 324 322 320 319 318 318 316 314 310 307 304 302 300 300 299 297 292 292 293 294
294 295 293 292 295 293 292 292 294 295 295 296 292 291 292 295 294 296 299 300 299 299 299 300 301 303 303 303 303 304 302 302 304 306 307 306 306 305 306 306 307 307 308 308 310 312 314 314 315 316 316 316 316 315 314 314 313 313 313 312 309 307 308 308 309 309 313 316 317 318 320 318 320 321 323 322 321 322 321 320 319 318 317 315 314 311 308 306 303 301 300 298 296 295 292 292 293
292 295 295 294 294 293 294 296 293 289 288 294 294 282 282 290 291 292 294 297 297 298 299 300 301 301 301 302 303 303 305 305 304 304 305 306 307 305 304 305 305 306 307 308 309 311 311 312 314 314 314 314 315 314 314 314 312 312 311 310 308 307 306 306 310 311 312 314 315 316 315 315 316 318 318 320 319 318 318 318 318 317 316 315 314 312 309 307 303 301 300 299 297 298 295 292 291
289 290 296 297 295 295 294 294 292 283 281 291 293 284 281 289 290 293 293 293 294 295 299 300 300 300 300 302 303 303 305 305 305 305 306 305 305 305 305 304 305 305 305 307 308 309 310 312 313 314 313 313 314 313 313 312 312 312 312 311 310 310 309 308 307 308 312 314 314 312 312 312 313 314 315 316 317 317 317 316 316 315 315 315 312 311 308 306 304 302 301 301 300 300 297 293 292
287 296 297 297 295 294 295 294 293 288 294 295 293 290 281 282 289 291 292 292 293 294 296 297 298 299 300 299 302 304 305 304 306 305 305 304 304 305 304 304 305 305 305 307 308 309 309 311 312 313 313 312 313 313 313 312 311 310 309 309 309 309 309 307 309 310 312 311 311 311 310 310 311 312 313 314 315 315 315 315 315 314 314 314 311 311 308 306 304 303 302 302 302 302 299 296 294
293 296 299 297 296 296 296 292 290 289 287 282 289 293 283 281 289 295 293 291 291 294 295 297 298 298 298 300 302 304 304 304 306 305 305 305 303 304 304 304 305 305 306 307 308 308 309 310 311 311 312 311 312 312 312 311 311 311 309 309 307 308 309 309 309 310 310 310 311 310 309 309 309 308 310 311 312 313 313 314 314 313 313 312 309 311 309 307 304 303 301 301 301 300 300 300 298
294 298 299 298 297 297 295 290 288 286 283 280 286 291 282 282 288 291 291 290 291 293 295 296 296 298 300 302 301 301 302 302 302 303 303 303 303 303 303 305 304 304 306 307 307 308 309 309 310 310 310 310 311 311 312 310 310 309 309 307 307 306 308 309 309 309 309 308 310 309 309 307 307 305 303 306 308 310 311 312 313 313 313 312 308 310 308 306 304 303 301 301 301 300 300 300 299
299 298 297 295 294 291 291 288 285 284 279 281 289 292 287 279 286 289 288 292 293 295 295 297 299 299 301 302 302 303 302 303 303 302 301 301 301 302 302 302 303 304 305 306 307 307 308 309 308 309 309 310 311 311 311 310 309 309 308 307 307 307 307 308 307 306 307 305 308 307 307 306 305 304 301 301 305 305 307 308 311 312 313 309 308 310 308 307 305 303 302 301 300 300 300 300 300
299 294 290 291 288 287 286 285 285 279 277 285 287 292 291 279 282 291 293 294 295 295 295 296 298 298 301 302 303 303 301 302 301 301 300 299 299 299 300 300 302 304 304 304 305 306 307 307 308 308 308 309 310 310 310 309 309 308 307 307 307 308 308 309 308 306 306 306 308 306 305 304 302 301 300 299 299 301 303 304 306 308 310 310 309 310 309 308 306 304 303 302 301 301 302 301 301
296 292 289 282 281 281 279 283 278 278 277 284 284 287 284 286 289 292 294 293 297 296 296 298 297 299 301 302 302 301 301 301 301 301 300 299 298 298 298 299 301 302 303 304 305 305 306 306 307 307 307 307 308 309 308 307 307 307 307 307 307 308 309 309 309 307 307 307 307 305 304 303 301 299 299 299 299 298 300 301 303 305 306 307 309 309 308 308 306 305 304 302 302 302 302 302 301
292 288 284 281 277 276 273 277 280 281 282 282 283 289 281 287 289 294 295 296 295 296 299 299 300 299 299 302 303 303 302 301 302 303 302 300 301 299 299 299 300 302 303 303 304 305 305 306 306 306 306 307 307 308 307 307 306 306 306 307 307 308 309 310 308 307 307 308 307 306 304 304 302 300 299 299 300 298 298 300 302 304 305 307 307 307 307 307 306 305 304 303 302 303 303 302 302
291 293 290 283 280 276 273 276 274 276 280 282 283 280 279 279 285 291 296 296 295 296 298 298 299 300 299 300 301 303 301 302 302 302 304 304 303 302 301 300 300 301 302 303 304 304 305 305 306 306 306 307 307 307 306 306 306 306 306 307 307 307 309 309 309 308 306 307 308 308 306 306 304 302 301 300 299 298 298 299 300 301 302 303 303 304 304 304 304 303 302 302 302 302 302 301 300
291 292 295 286 283 287 279 281 281 279 280 279 279 280 283 286 292 293 294 294 294 293 295 296 295 297 297 299 299 300 301 301 303 302 303 303 304 303 302 301 301 301 302 303 303 304 305 305 306 306 306 306 307 306 306 306 306 306 306 306 307 307 307 308 307 307 306 307 307 308 307 306 305 304 303 301 299 298 298 298 298 299 300 300 301 303 304 303 302 302 301 301 300 301 300 298 295
288 290 284 288 292 290 283 281 283 280 278 277 282 284 287 289 293 295 296 295 294 292 294 294 295 295 294 295 298 302 301 299 300 300 301 302 302 303 303 302 302 302 302 303 303 305 305 305 305 305 306 306 306 306 306 305 305 304 304 305 305 305 306 306 307 308 307 306 306 307 306 304 303 303 302 301 300 298 297 297 297 297 298 299 300 301 302 302 302 301 300 298 298 296 297 295 292
291 283 289 293 295 293 285 278 280 278 275 278 280 280 283 281 280 290 291 290 292 292 293 294 295 295 295 296 298 301 301 301 301 301 301 301 301 302 302 302 302 302 302 303 303 305 305 305 305 305 305 305 306 306 305 305 304 303 303 303 304 304 304 304 306 307 306 304 304 304 303 303 303 303 301 299 300 297 296 295 296 296 296 297 297 297 299 299 299 299 298 298 298 294 294 292 291
292 289 298 290 281 281 283 281 275 273 273 276 279 280 282 284 285 286 287 290 290 292 293 293 293 294 295 296 298 301 300 301 302 301 301 302 301 301 301 301 301 301 302 303 304 305 305 304 305 305 305 305 305 306 304 304 303 303 303 302 302 302 303 302 302 305 305 304 303 303 302 302 302 301 298 296 296 293 292 292 292 292 293 293 294 294 294 295 295 296 293 294 293 293 293 291 290
297 296 292 295 287 283 280 281 281 279 274 273 278 279 279 288 287 290 290 290 291 292 291 292 293 296 298 298 300 302 301 301 301 301 302 302 301 300 300 300 300 301 301 301 302 303 304 304 304 304 304 304 304 304 304 303 303 303 302 302 302 302 303 303 303 304 304 304 304 303 303 302 301 298 297 295 294 293 291 291 291 291 291 291 292 292 292 293 293 293 292 292 291 292 291 290 289
284 285 285 288 285 289 284 284 282 279 276 275 274 276 281 288 291 292 292 293 293 294 295 296 296 296 295 299 302 302 302 302 301 301 301 302 300 300 299 299 298 299 299 299 301 303 303 303 303 303 304 303 304 304 303 303 302 302 300 300 300 300 301 302 302 304 304 303 302 302 301 300 297 296 295 294 293 292 291 291 290 290 290 290 290 291 291 292 292 291 290 290 290 291 290 289 288
290 289 287 289 285 282 279 279 287 283 280 276 276 277 284 291 294 295 293 293 295 295 294 294 296 296 299 301 303 302 302 301 300 300 300 301 299 298 298 298 297 296 297 298 300 300 302 303 303 303 303 303 303 304 304 302 301 302 299 300 299 298 298 297 297 298 300 301 299 299 298 296 296 295 294 293 292 291 290 290 289 289 289 289 290 290 290 291 291 291 290 290 290 289 289 288 287
Wind_Speed
9 8 7 5 5 4 4 2 2 2 2 2 4 1 2 2 3 4 5 5 4 2 3 4 5 6 5 2 5 11 8 6 3 1 1 3 4 6 7 12 12 11 12 10 8 5 5 7 11 11 11 11 11 10 9 9 10 11 11 12 13 13 14 14 14 14 15 15 15 14 14 14 14 13 13 14 14 13 14 13 13 15 16 15 17 18 19 21 20 19 20 21 20 20 19 18 17
7 8 5 4 4 1 2 5 1 3 2 6 5 5 2 3 3 3 5 9 3 2 2 4 4 3 3 5 2 5 10 9 6 6 6 8 8 7 9 11 12 13 10 10 8 6 6 7 11 12 12 12 12 11 10 11 11 12 11 11 13 13 14 13 14 15 15 15 14 14 14 14 14 13 13 14 13 13 13 13 12 14 17 19 19 19 20 19 19 20 20 19 20 18 17 17 17
6 7 6 5 3 2 4 1 2 3 4 5 3 3 3 4 5 9 9 8 6 4 4 4 2 1 1 3 2 6 3 8 10 9 6 7 8 8 9 9 10 12 12 9 9 8 6 6 10 12 11 11 12 11 11 11 11 12 12 12 12 13 13 13 14 15 15 14 14 14 14 14 14 14 13 13 13 14 13 12 12 16 18 17 18 19 19 20 19 19 20 20 19 19 17 16 16
5 6 4 3 2 2 2 1 3 3 3 5 4 2 2 5 9 10 7 5 5 4 1 2 1 1 3 5 4 4 5 4 7 9 7 8 5 8 9 9 10 10 9 7 8 8 6 7 10 12 11 11 11 10 10 11 11 11 11 12 12 12 12 12 14 14 14 14 14 15 15 15 14 13 14 14 13 13 13 13 14 15 16 16 17 18 18 18 18 18 19 20 19 18 16 15 15
3 4 5 3 0 2 1 2 2 4 5 3 4 3 3 8 8 8 5 4 3 3 1 1 2 2 2 1 3 1 4 7 8 5 5 2 12 8 8 7 8 9 9 9 8 8 8 10 8 9 12 12 13 12 11 11 11 11 11 12 12 12 12 13 14 15 15 15 14 14 14 14 14 14 15 14 14 13 12 13 15 15 16 17 16 17 17 17 18 19 19 19 18 17 16 15 15
6 4 3 1 1 1 1 2 1 6 3 3 4 3 5 8 8 7 6 6 3 4 3 2 3 1 1 3 3 3 1 2 4 5 6 8 10 10 9 4 7 8 8 10 9 8 8 10 8 9 10 11 12 12 10 11 11 11 11 11 12 12 12 13 13 15 15 14 14 14 14 14 14 14 15 15 13 12 13 14 15 15 15 15 16 17 19 19 19 20 18 18 18 17 16 15 14
3 2 1 1 3 1 2 4 4 4 4 4 3 4 6 7 8 8 7 5 3 4 1 2 0 1 3 1 6 4 5 2 3 5 3 8 11 7 9 5 6 8 9 8 9 9 10 11 10 9 9 9 11 10 11 11 11 11 11 11 12 12 12 12 14 14 14 14 14 14 14 14 14 14 14 13 13 13 13 16 17 16 15 17 17 17 17 18 18 18 18 18 18 16 15 14 14
3 0 0 2 2 2 4 1 6 3 2 4 5 5 7 7 5 5 6 4 3 2 1 2 1 1 2 3 3 1 8 7 8 9 10 7 6 7 6 5 6 8 9 8 8 8 10 11 10 9 9 10 9 9 11 11 11 11 11 11 12 12 13 13 14 14 14 14 14 14 14 14 14 13 13 13 12 13 13 14 15 15 16 17 17 17 18 18 19 18 17 17 18 17 14 13 14
2 2 0 1 3 1 3 6 3 4 3 3 3 5 8 5 5 5 4 5 4 5 4 3 3 0 1 6 5 3 4 5 7 8 8 7 6 4 5 5 6 7 10 8 8 9 7 10 10 10 9 9 8 9 11 11 10 10 11 11 11 11 13 14 14 15 14 14 14 14 14 14 14 13 13 13 12 12 13 15 14 15 16 16 17 17 17 17 18 17 16 17 17 15 13 13 14
2 2 1 1 2 3 1 3 4 2 4 3 5 2 4 3 4 4 6 5 5 4 5 4 3 1 2 6 4 3 5 7 7 7 6 6 8 8 7 5 6 7 12 9 8 8 7 9 11 10 9 8 8 6 9 10 10 9 10 10 11 11 13 14 14 14 14 14 14 14 14 13 13 13 13 12 12 12 13 14 14 14 15 15 15 16 16 16 16 16 16 16 16 14 13 14 14
2 2 1 1 3 3 1 5 4 3 4 3 4 3 2 1 3 3 3 7 4 4 3 5 2 2 2 5 3 2 9 9 8 9 8 6 6 7 5 3 5 5 11 10 9 8 8 7 10 9 9 9 8 6 7 9 10 9 9 10 11 11 13 14 15 14 14 14 14 14 14 13 13 13 13 12 11 12 13 13 13 14 14 14 14 15 15 16 15 15 15 15 15 14 14 14 14
2 2 0 2 4 1 4 3 5 5 5 3 3 3 1 2 1 3 4 5 3 5 4 4 0 1 2 5 2 4 8 8 7 7 7 7 3 4 6 4 5 5 10 10 10 8 8 7 7 8 9 10 9 7 4 8 8 8 8 10 12 11 13 13 14 14 14 14 14 14 14 13 13 12 12 12 12 11 12 12 12 13 13 14 15 15 15 15 15 15 15 15 14 14 14 13 13
2 2 2 2 3 3 1 2 4 3 4 4 5 3 2 3 3 2 3 2 4 4 4 4 2 1 1 3 2 5 7 7 9 9 6 6 4 3 2 5 6 5 8 10 11 10 9 8 7 6 7 10 9 10 5 4 7 7 8 9 11 10 10 13 13 14 14 14 14 14 14 12 12 12 12 12 11 12 12 12 11 12 13 13 14 14 15 15 15 15 15 14 14 14 14 13 13
0 1 1 2 1 1 1 2 2 1 2 4 4 5 3 3 3 1 4 2 3 1 1 4 0 2 2 5 3 4 5 6 11 8 6 4 4 3 4 3 6 4 7 7 7 10 9 9 8 7 8 7 6 8 6 4 5 7 7 8 11 11 10 11 12 13 13 13 12 12 11 11 11 12 11 12 11 12 12 12 12 12 13 13 14 14 15 15 15 15 15 14 14 14 14 13 13
1 1 1 1 2 1 1 1 3 1 3 4 3 5 4 1 1 3 0 2 4 2 2 3 1 0 1 1 3 5 7 8 8 7 6 5 4 4 4 4 5 3 7 5 6 9 9 8 9 7 7 7 7 5 4 5 6 7 8 7 10 11 10 11 11 11 12 12 11 11 11 10 10 10 9 9 10 9 9 10 12 11 13 13 14 15 15 15 15 15 14 14 14 14 13 12 12
1 3 0 0 2 0 0 1 2 2 2 4 5 5 4 2 2 1 2 2 2 1 0 1 1 1 3 7 3 10 11 9 7 7 7 6 4 3 2 3 5 3 5 5 6 5 6 8 7 7 7 7 7 5 5 5 6 8 8 6 7 11 10 11 13 12 12 12 12 12 12 10 10 9 12 8 9 9 9 7 10 10 13 14 14 15 15 15 15 14 14 14 14 14 13 12 11
1 0 0 1 3 2 1 0 1 1 3 4 4 5 4 3 1 2 1 0 3 2 1 2 2 1 4 4 8 10 9 7 7 7 7 6 4 4 3 2 3 4 3 4 5 6 5 8 8 6 7 8 7 6 6 6 6 9 6 7 6 9 11 13 13 13 12 11 11 11 10 8 6 6 7 6 8 7 9 10 10 11 13 14 14 14 14 15 14 13 14 15 15 14 11 10 10
1 1 1 1 3 2 3 1 2 7 5 4 4 5 4 4 2 1 1 1 0 5 1 4 5 6 8 7 7 8 7 7 7 8 7 6 5 5 3 4 3 5 5 3 4 6 6 7 7 7 7 8 7 6 5 6 6 8 6 5 4 7 10 11 10 9 9 7 11 9 6 6 6 4 6 7 6 6 7 10 11 11 14 12 13 15 15 14 14 14 15 15 14 11 9 5 5
2 1 2 4 2 1 4 5 8 4 4 6 4 3 4 5 7 3 3 3 3 3 3 5 4 8 6 6 9 8 8 6 7 7 8 8 7 8 6 5 5 4 6 5 4 5 5 6 7 6 6 8 8 7 6 6 8 6 6 6 5 7 9 10 8 9 7 8 8 6 7 6 7 5 4 6 7 9 9 11 11 11 11 10 12 13 13 15 14 15 14 13 10 8 5 3 4
2 1 3 2 2 4 7 8 5 4 3 6 4 3 3 4 4 3 2 4 6 6 5 5 6 8 8 7 8 9 7 7 7 7 8 8 7 8 8 8 6 5 6 5 5 4 5 5 5 7 7 6 7 6 6 7 7 7 7 6 6 6 7 7 8 8 7 8 7 6 6 6 8 7 10 13 10 7 8 11 13 12 12 11 11 8 11 12 13 12 10 7 5 4 3 3 5
0 0 0 1 3 2 5 7 5 4 4 1 4 3 1 2 1 3 3 3 4 5 6 6 9 9 12 12 10 9 9 9 7 6 8 8 7 6 7 8 7 6 5 5 4 4 4 5 4 3 5 7 6 6 6 6 7 6 6 7 7 6 7 7 8 7 8 8 6 4 6 8 8 8 7 6 6 6 6 6 6 6 6 5 7 5 5 5 5 4 2 1 3 3 5 4 5
0 1 3 2 4 4 4 6 6 4 3 3 4 4 3 3 2 2 3 4 3 0 1 0 2 7 15 14 11 9 11 10 9 8 9 10 10 8 6 5 6 5 6 6 5 5 4 4 5 3 4 6 5 6 7 7 7 7 7 8 7 6 7 7 7 7 7 8 5 4 5 9 8 8 7 6 6 6 6 5 6 6 5 5 4 6 5 4 4 2 1 3 5 6 6 6 6
1 1 3 5 2 4 2 2 3 4 2 1 1 1 2 2 1 4 4 5 2 3 6 7 5 9 14 11 11 9 10 11 11 12 10 10 10 8 8 7 8 8 7 8 6 5 5 5 5 4 4 7 7 5 6 7 6 6 6 7 8 7 7 7 7 6 7 7 5 5 5 8 7 7 7 7 7 6 6 6 6 5 6 6 6 6 5 5 4 3 5 5 5 5 5 6 6
1 1 2 3 4 6 3 3 0 2 5 3 1 3 1 1 3 0 6 6 4 4 6 8 7 7 11 12 10 12 12 12 13 13 12 12 11 11 9 9 7 6 6 7 7 7 7 8 7 5 5 5 6 6 5 6 7 7 6 7 7 8 8 7 7 7 6 7 6 5 5 7 8 7 7 8 8 7 6 6 6 5 6 6 6 6 6 5 4 5 5 5 5 4 5 5 6
3 2 3 1 3 3 3 3 2 1 0 2 4 1 3 2 1 3 4 4 4 1 5 6 6 5 7 10 9 8 8 8 8 8 7 5 6 7 6 6 6 7 7 8 7 8 8 8 7 8 6 5 4 6 5 5 6 7 7 7 8 7 7 7 7 6 6 6 6 6 5 6 7 7 7 8 8 8 7 7 7 6 6 6 6 6 5 5 6 6 6 4 5 5 5 5 5
3 3 4 3 3 3 3 4 2 0 1 1 1 3 2 2 3 4 8 6 5 5 5 5 5 5 5 8 9 9 9 10 8 8 10 8 6 8 9 7 6 9 9 8 8 8 8 9 9 10 9 8 7 6 6 5 6 7 8 8 6 7 7 7 7 6 6 6 7 7 5 7 7 7 6 7 8 7 7 8 8 7 7 6 6 6 6 6 6 6 5 5 5 5 6 6 6
1 4 4 4 4 3 1 1 3 1 1 1 1 3 1 1 4 6 2 4 5 5 6 5 6 5 6 5 7 8 9 10 11 9 6 6 6 8 8 8 7 7 8 9 8 7 9 11 11 10 10 10 7 7 7 7 6 6 7 9 8 8 7 6 7 7 7 7 7 8 7 7 6 6 6 6 7 6 6 8 8 7 7 6 6 6 6 6 6 6 6 6 6 6 6 6 6
2 5 5 5 3 3 2 1 4 1 0 0 2 5 2 3 1 9 3 1 4 4 4 5 5 5 5 7 7 6 8 8 8 8 12 10 10 9 8 10 9 7 9 9 7 6 8 13 13 12 12 12 9 8 6 7 6 6 6 6 6 7 8 8 7 7 7 7 8 9 8 7 7 6 6 6 7 6 6 7 7 7 7 7 6 6 7 7 6 5 5 5 5 6 6 6 6
4 4 3 4 4 2 4 3 4 2 1 1 1 3 6 4 7 16 6 4 4 5 5 5 5 5 5 6 6 6 7 7 8 9 11 11 10 9 11 10 10 9 6 9 8 7 7 9 10 7 7 9 11 10 8 7 6 5 7 6 6 6 6 8 8 8 7 7 7 9 8 8 7 7 7 7 6 6 6 7 6 7 7 7 6 6 7 7 7 6 6 6 6 5 6 6 6
1 1 1 4 3 2 7 3 4 2 1 1 2 2 6 10 18 11 6 6 4 4 4 5 5 5 6 6 6 6 6 6 8 10 9 8 9 10 10 9 10 9 7 8 9 9 7 4 5 6 7 7 9 8 7 6 5 5 6 7 7 6 5 6 7 7 7 7 8 9 8 9 8 7 8 7 6 7 6 6 7 6 6 6 7 7 7 7 7 7 7 7 6 6 6 6 6
2 3 1 0 3 2 8 4 5 3 1 2 1 2 8 6 3 4 5 7 7 5 5 5 5 5 5 5 6 5 6 7 9 9 9 9 8 8 10 8 10 9 6 6 12 11 9 8 7 7 8 8 8 9 7 7 6 6 6 7 7 7 7 7 6 7 8 7 8 9 9 9 9 8 9 8 8 8 8 6 7 7 6 7 7 6 6 6 7 8 7 7 7 6 6 6 6
1 2 2 1 1 1 1 2 7 4 0 2 2 3 9 14 3 1 2 2 2 4 5 5 5 5 6 6 6 5 6 7 8 8 9 10 9 8 10 10 10 10 11 10 9 10 11 10 10 8 9 10 8 8 6 7 7 6 6 6 6 6 7 7 7 6 6 7 7 7 9 9 9 8 7 9 8 8 8 8 7 7 8 7 7 7 6 6 6 6 7 9 9 7 7 6 6
1 2 1 3 3 2 1 2 2 3 4 1 5 5 4 2 4 4 4 4 3 2 4 5 5 4 4 4 6 6 6 6 8 9 9 9 9 8 9 10 11 12 10 10 11 9 10 11 11 11 11 11 9 8 6 5 4 5 5 6 6 7 7 6 6 6 6 7 7 7 8 9 9 9 8 9 8 8 8 8 7 8 8 8 8 8 7 6 7 5 5 6 9 9 8 8 7
2 2 2 1 5 3 2 2 1 1 1 3 5 4 7 8 3 1 2 5 6 6 6 6 5 4 5 5 6 6 7 7 9 10 11 10 9 10 9 10 11 11 10 11 11 12 12 11 11 11 9 11 10 9 7 6 5 5 5 6 5 7 7 6 6 7 6 6 7 7 8 9 9 10 8 8 8 8 9 9 8 9 8 8 8 8 8 7 6 7 7 4 6 9 8 9 8
4 4 3 5 1 1 1 2 3 1 1 3 3 8 10 12 13 8 5 7 6 7 7 7 7 6 6 6 5 7 8 9 10 8 11 11 10 10 9 8 9 9 9 11 10 11 9 9 9 9 8 8 8 7 6 6 5 5 4 4 4 6 6 6 6 6 6 6 6 7 9 8 9 9 8 7 8 8 8 8 9 10 9 8 9 8 8 8 7 5 7 6 3 3 8 8 9
4 0 4 3 2 4 5 2 1 1 3 4 6 9 7 10 12 9 9 8 9 9 8 7 8 8 7 6 7 6 6 9 8 8 10 11 11 11 10 8 8 8 8 9 10 9 10 9 8 9 9 9 7 6 7 7 6 6 6 4 4 6 7 7 6 7 6 6 6 6 7 8 8 9 8 7 8 9 8 8 9 9 9 9 9 9 8 8 10 10 8 10 8 5 4 8 9
3 1 2 2 1 1 3 3 2 1 1 4 7 9 9 11 12 9 7 6 6 6 7 6 6 7 7 8 8 9 9 10 7 9 10 13 13 12 10 8 8 7 8 9 10 10 11 12 10 12 10 9 9 9 8 9 9 7 5 8 8 6 6 5 6 6 7 6 7 7 7 7 8 9 9 9 9 9 9 8 9 9 10 10 10 11 12 11 10 10 8 6 11 9 5 7 8
1 4 5 5 1 2 3 2 1 2 0 2 3 6 9 9 8 9 6 6 9 9 9 10 10 9 8 9 10 10 10 3 4 6 6 9 10 9 9 9 8 11 10 11 12 14 12 11 12 11 10 10 10 10 9 9 10 10 10 10 8 6 7 7 6 5 6 5 6 7 7 7 9 9 9 10 10 10 9 9 9 10 9 9 9 9 10 9 9 9 8 6 2 10 9 10 10
3 2 2 2 4 1 2 3 1 1 1 6 5 6 11 8 8 10 10 10 10 8 9 11 9 9 9 8 9 9 6 7 6 7 7 8 8 8 8 8 9 12 12 13 12 10 10 11 11 10 11 11 10 10 10 10 8 6 6 5 7 4 2 4 4 4 3 4 4 4 5 8 9 9 9 10 9 9 10 9 9 10 11 10 8 7 8 11 10 12 11 10 8 2 4 6 11
1 1 2 3 1 1 2 1 1 1 2 3 4 9 14 12 11 15 17 15 16 11 11 10 8 10 9 10 9 7 7 8 8 8 8 7 9 9 7 8 9 7 6 6 8 11 10 10 9 11 11 11 10 10 10 7 6 5 5 4 4 4 3 3 4 6 6 6 6 6 6 6 8 8 9 9 8 9 10 10 8 9 10 10 10 10 10 11 11 11 10 8 10 10 6 8 9
4 3 2 3 1 2 2 0 2 2 4 1 4 7 10 8 8 7 10 15 11 7 6 8 8 9 9 6 6 6 7 6 8 7 7 8 9 10 12 10 7 8 8 9 9 10 8 11 11 11 10 11 9 9 9 7 7 6 5 4 3 4 4 3 4 3 6 6 6 7 8 4 5 6 8 8 8 9 8 9 9 9 9 10 9 10 11 13 15 14 15 14 14 13 11 8 10
2 6 8 5 5 1 2 2 5 3 2 0 1 5 6 2 3 6 4 2 3 4 6 9 10 8 6 8 10 7 5 5 5 6 7 10 11 8 6 7 8 7 8 8 8 9 7 7 7 7 6 7 8 8 9 8 8 9 8 8 8 6 6 7 10 10 7 8 9 6 4 5 3 4 4 7 7 8 8 9 10 10 10 10 10 10 10 10 11 13 14 14 15 11 14 11 11
0 1 4 3 2 1 2 2 1 2 1 1 0 1 9 9 13 11 8 6 8 5 7 11 8 7 7 10 8 7 8 7 6 5 3 6 7 8 7 8 7 7 7 5 5 6 6 6 6 7 6 6 6 7 8 8 8 8 10 10 8 9 10 6 3 3 5 5 5 6 6 3 3 4 5 5 6 8 8 9 9 9 10 11 11 10 10 11 12 13 10 7 9 6 7 12 13
1 1 3 2 0 2 0 0 1 4 1 2 4 3 3 9 18 4 4 6 7 8 9 9 6 7 9 6 6 7 7 6 6 7 6 4 6 8 9 7 7 8 5 5 5 5 6 6 7 7 6 7 6 7 8 8 8 7 7 7 7 7 7 6 6 5 4 5 6 6 5 5 4 4 5 5 6 8 8 8 9 9 9 9 10 11 12 11 9 7 8 10 8 8 9 10 12
1 1 3 2 3 3 2 1 1 1 2 6 1 1 1 5 12 14 6 6 6 11 10 10 12 9 7 5 3 5 5 4 5 5 3 3 4 6 6 6 6 6 6 7 6 6 6 5 6 6 7 6 6 8 9 7 8 8 7 7 7 5 5 5 6 7 7 7 8 6 7 6 6 5 5 5 6 7 8 9 9 9 9 8 8 9 10 11 14 14 13 10 10 9 9 9 8
2 2 2 3 3 2 2 0 1 2 1 7 4 5 3 7 6 11 5 4 7 7 10 10 7 7 3 6 5 5 4 4 4 4 4 4 4 4 3 6 5 5 5 6 5 5 5 5 6 7 6 6 6 7 9 8 8 8 8 8 8 6 5 5 6 8 7 7 8 8 7 7 6 6 5 4 5 5 7 8 9 10 10 9 9 9 10 11 11 11 13 14 13 13 10 9 10
4 3 4 1 1 1 0 1 1 1 4 7 8 9 6 8 4 9 6 4 7 9 4 2 5 7 6 5 4 3 3 3 3 3 4 4 4 4 4 6 5 5 5 5 5 5 5 6 6 7 6 6 7 8 9 9 8 8 9 9 9 8 7 6 6 6 7 6 7 7 8 7 6 6 4 4 5 5 6 6 8 9 9 8 10 9 10 11 11 12 12 12 11 13 11 11 9
2 1 2 1 0 2 1 0 2 1 6 1 2 6 6 7 4 4 2 1 1 0 1 3 4 5 6 3 2 3 4 4 5 5 3 4 3 3 3 5 6 5 5 5 5 5 5 5 6 7 6 6 7 7 8 8 9 8 7 9 9 9 8 8 9 8 8 9 8 8 6 6 6 5 5 5 5 4 5 5 5 6 8 8 10 9 9 10 10 10 10 10 11 12 10 10 9
1 2 3 3 1 2 2 1 2 5 7 1 1 2 2 17 8 7 8 5 0 3 2 0 2 4 5 4 4 4 4 5 5 5 5 5 5 5 6 6 6 6 7 6 6 5 5 5 6 7 7 6 8 7 8 7 8 8 8 8 8 8 9 8 9 9 9 9 8 8 8 8 6 6 7 7 6 5 5 6 6 7 7 7 9 9 9 10 9 10 10 11 11 12 12 11 11
2 5 6 5 2 3 4 4 2 2 1 3 1 1 6 8 6 8 10 10 5 0 1 1 0 2 3 5 5 5 5 5 5 5 6 5 6 6 5 7 7 7 7 8 7 6 5 6 5 6 7 6 6 8 9 8 8 7 7 7 7 7 8 9 8 8 9 9 9 9 9 9 9 10 9 9 8 7 6 6 7 7 7 7 8 10 10 9 9 10 10 11 12 11 10 11 11
9 5 8 8 6 3 4 3 5 5 4 0 4 1 8 3 3 2 1 3 4 1 1 1 1 0 2 1 3 5 5 4 5 5 6 7 6 6 7 6 6 7 8 8 7 7 6 6 7 8 8 8 8 8 8 9 8 7 7 7 7 6 7 8 7 7 8 9 9 10 9 9 9 9 10 9 9 10 10 8 8 8 7 7 6 7 7 7 7 6 7 8 9 7 9 8 7
4 4 1 3 8 0 3 1 0 1 1 2 1 6 2 4 3 5 4 6 7 5 4 3 6 5 5 5 5 5 5 5 5 5 5 5 6 6 6 6 7 6 7 7 8 8 8 8 8 9 9 9 9 8 9 10 9 8 8 8 8 7 6 5 6 6 6 8 9 10 10 9 9 9 8 8 9 10 10 10 8 8 6 6 6 7 7 7 7 8 7 7 9 7 8 6 5
6 3 7 8 1 1 1 1 1 2 2 9 4 7 9 3 11 11 14 13 10 4 3 4 5 6 5 5 3 1 4 6 6 6 6 7 6 6 7 7 6 7 7 9 9 9 9 9 9 9 8 7 9 9 9 9 9 9 9 8 7 7 7 7 7 7 7 5 7 8 9 9 8 8 8 8 9 8 8 9 8 8 7 7 6 7 7 7 7 7 8 7 8 6 8 7 5
6 4 6 2 3 3 3 4 0 2 7 8 4 9 13 3 11 2 3 6 6 6 6 4 6 7 7 7 6 3 4 5 6 7 6 6 6 6 5 5 6 7 8 8 9 8 8 8 9 9 9 10 9 9 9 8 8 8 7 7 7 7 6 5 5 6 5 5 5 5 5 7 8 7 6 6 7 8 8 8 8 8 7 8 8 6 7 7 7 7 8 8 8 7 6 5 6
3 4 1 5 2 4 2 1 5 4 4 4 4 7 11 9 14 2 5 1 5 6 6 6 6 6 5 6 7 1 2 1 1 2 3 2 3 4 5 6 6 6 6 7 7 8 7 6 7 8 10 9 8 7 6 6 7 6 6 7 7 6 5 4 4 4 4 6 6 5 5 6 6 6 6 6 6 7 7 7 7 7 7 7 7 7 6 7 7 7 6 7 6 8 8 7 6
1 2 1 1 2 1 5 5 1 2 5 2 12 5 8 8 5 2 5 4 5 8 6 4 2 3 1 2 5 1 4 4 4 4 4 3 4 4 5 5 6 7 6 5 6 5 7 7 7 7 6 6 6 7 7 8 8 7 7 7 7 7 7 8 7 7 6 7 6 6 6 6 7 6 6 6 7 7 7 7 6 6 6 6 6 6 5 5 6 6 7 7 6 8 9 9 7
0 1 2 0 1 1 3 3 5 5 3 4 5 10 10 8 5 7 8 5 4 3 4 3 2 3 4 2 1 1 2 3 4 5 4 3 4 2 2 3 4 3 4 5 5 6 6 5 6 7 8 7 8 8 7 8 7 8 7 8 8 7 7 7 8 9 9 7 6 7 6 6 5 7 6 7 7 7 7 7 7 7 7 7 7 6 6 6 6 6 5 5 5 7 8 7 8
12 12 11 11 7 4 4 8 1 1 5 4 4 13 12 8 1 2 3 4 6 5 5 6 7 6 1 3 1 1 1 4 5 5 2 4 3 1 1 1 2 4 4 5 5 5 6 7 7 7 6 7 8 9 8 7 7 7 7 8 8 6 6 5 7 7 8 7 6 6 6 5 6 6 7 8 8 7 7 7 7 7 7 7 6 6 6 7 7 7 6 5 7 7 8 8 7
Wind_Direction
296 278 248 232 239 252 301 221 312 219 194 132 120 132 78 85 126 109 106 183 98 37 38 53 27 38 25 36 47 74 39 51 8 81 136 132 166 136 124 126 130 131 128 122 129 135 128 129 135 124 127 124 123 125 123 122 116 106 104 103 96 89 85 81 80 77 75 71 76 74 77 80 80 78 81 85 87 85 83 78 81 85 84 88 85 82 79 75 74 74 73 71 70 69 70 70 70
288 287 278 258 257 266 251 165 259 281 198 86 71 93 136 101 214 99 95 70 64 91 51 47 54 48 347 32 335 127 47 48 67 87 84 127 143 139 129 134 137 128 129 129 136 139 124 121 134 136 134 132 133 128 129 127 115 108 105 99 93 89 86 85 83 80 79 81 80 81 77 78 85 86 86 92 95 94 93 91 88 86 82 80 80 81 79 78 77 77 76 74 71 71 71 73 73
306 312 298 225 253 218 302 237 264 258 133 90 63 70 144 153 100 74 76 84 96 92 73 69 79 104 301 245 73 32 95 92 89 94 104 130 140 141 140 144 135 130 131 136 139 132 128 120 132 141 139 134 132 131 132 123 115 109 104 99 97 94 91 87 85 85 85 85 85 82 82 84 85 88 90 89 90 94 91 90 93 92 87 84 83 81 81 81 81 78 76 76 74 72 74 75 76
289 271 268 292 292 143 263 201 226 290 69 116 85 138 143 85 79 86 86 95 86 107 141 108 131 8 347 36 22 115 93 74 99 126 130 165 140 137 142 139 132 128 127 133 135 129 121 125 129 143 140 137 136 134 133 119 112 110 106 104 102 99 96 91 89 89 88 87 86 85 85 85 88 91 91 92 93 92 89 95 92 91 91 89 84 82 82 82 80 79 78 76 75 76 80 79 74
271 259 228 282 281 259 307 257 276 43 30 358 118 156 105 101 104 94 88 95 86 73 57 92 90 346 73 60 0 48 74 100 114 128 128 104 124 139 137 136 141 128 134 131 128 116 124 124 119 133 143 144 140 139 131 123 118 115 110 108 105 101 100 96 93 89 89 92 92 91 91 90 91 92 91 92 93 93 98 97 89 86 88 86 87 87 86 86 85 85 80 77 79 80 83 82 66
246 272 213 163 239 81 321 322 30 68 33 352 103 102 92 102 108 114 105 77 82 72 27 89 24 143 103 51 2 79 234 134 140 110 120 132 132 135 129 157 130 138 140 133 121 123 130 126 122 133 135 137 134 136 134 129 124 119 116 110 108 105 104 99 94 93 95 94 94 93 93 94 91 90 95 95 92 97 100 96 95 93 91 92 89 91 89 86 83 80 80 79 81 83 84 73 60
292 288 205 226 272 107 245 260 71 85 350 8 92 108 96 97 111 120 114 107 87 99 346 55 312 317 119 128 77 70 24 69 119 115 109 115 123 141 119 169 138 143 135 121 120 120 129 128 130 130 130 132 137 137 140 135 129 125 118 117 119 117 112 104 99 96 96 97 98 97 97 97 97 96 96 98 102 102 98 93 92 93 95 97 98 94 90 87 85 84 81 81 84 86 83 68 60
243 67 189 217 277 175 246 105 58 56 26 26 19 91 102 113 131 126 151 136 161 139 211 61 94 354 83 228 95 45 65 49 92 84 91 100 108 110 142 177 151 144 129 117 110 114 125 127 126 128 135 139 135 144 141 137 132 129 124 125 128 125 117 108 104 102 101 102 101 100 100 99 99 97 96 96 98 104 100 97 98 95 87 87 88 91 90 89 87 84 84 86 87 90 79 67 59
250 200 168 29 273 163 291 79 105 85 131 88 54 41 98 129 146 123 114 90 134 108 168 166 93 293 145 85 68 142 80 97 101 97 101 113 116 131 178 180 152 134 113 107 108 121 122 127 128 130 136 138 138 145 143 140 135 133 129 131 132 129 121 112 109 105 104 104 103 101 100 100 101 101 101 101 99 99 102 94 100 96 94 96 95 96 95 93 88 88 90 90 90 87 74 65 55
277 148 307 255 301 264 240 93 89 77 95 95 128 117 100 143 134 149 117 149 113 116 68 59 91 22 180 111 122 159 137 116 120 125 115 132 139 169 195 172 138 138 116 121 126 128 125 131 129 131 139 141 138 142 145 140 140 137 134 133 132 135 125 117 112 109 106 105 104 103 102 101 100 102 102 101 103 105 109 107 104 105 101 98 99 97 94 93 94 95 94 93 91 85 73 64 57
253 171 236 346 240 254 233 96 104 128 99 87 94 123 123 135 127 127 146 97 138 102 133 124 132 189 276 88 80 31 124 130 140 134 136 149 165 169 157 177 134 145 126 131 132 125 129 131 127 132 139 138 142 147 148 145 145 143 142 139 141 141 129 122 118 113 110 108 107 107 106 105 103 104 107 108 110 109 106 109 111 112 111 110 104 100 96 96 100 99 97 92 87 82 73 66 59
260 200 133 286 282 26 16 97 106 96 118 135 111 129 185 138 158 130 119 122 124 130 138 184 122 28 209 131 117 156 136 145 139 138 148 135 194 193 152 171 129 150 121 124 124 132 135 130 126 125 126 138 143 137 147 151 149 148 146 142 142 145 135 127 122 117 114 112 111 110 111 111 111 109 109 111 110 111 111 112 114 114 115 112 108 109 104 104 104 103 100 94 88 82 77 71 67
253 151 202 246 285 14 349 20 71 117 123 193 142 139 153 133 186 153 128 97 130 147 139 168 100 119 354 71 134 134 148 163 133 146 149 155 170 187 183 149 151 151 127 135 140 140 138 145 136 137 128 129 128 141 147 163 150 149 151 143 141 143 140 132 126 121 117 116 116 115 114 113 113 114 112 113 112 109 108 105 104 107 105 107 106 111 112 112 107 107 105 93 87 83 78 70 62
227 285 204 242 182 4 321 87 190 186 184 117 116 131 165 151 224 163 129 156 141 133 8 88 41 42 121 103 129 161 157 143 125 133 144 148 141 189 199 154 149 148 133 141 142 140 147 152 145 136 134 132 135 142 151 167 141 152 146 143 138 146 146 133 128 124 118 114 110 108 109 114 117 117 116 115 114 111 109 111 110 110 112 113 114 112 111 109 111 108 104 91 87 82 76 69 58
300 328 345 294 347 34 69 317 23 353 65 100 125 141 151 53 347 39 41 171 60 98 162 30 70 80 355 218 172 175 149 121 129 130 134 143 161 203 174 128 147 141 138 162 146 150 157 154 144 142 151 140 144 155 161 142 125 130 138 137 138 145 143 135 119 113 113 113 110 106 101 97 95 94 97 99 97 98 105 112 116 115 120 117 116 112 112 113 112 111 99 93 87 82 76 65 53
279 342 266 10 271 97 107 213 134 339 132 118 186 130 135 68 353 150 55 13 134 26 14 84 355 72 69 69 81 125 125 125 130 134 138 149 176 139 173 135 144 157 143 162 148 159 154 149 142 152 159 153 155 164 160 143 134 138 140 133 142 147 142 128 123 119 116 112 110 107 104 96 92 91 90 85 86 88 87 93 104 116 121 122 120 117 117 119 116 112 99 93 87 80 72 59 48
246 142 204 154 293 167 175 202 110 55 97 107 159 154 155 155 254 53 239 320 143 147 112 131 125 102 80 109 107 105 110 120 128 141 142 141 146 145 152 132 157 160 154 172 155 157 163 148 153 162 159 158 159 162 165 151 145 136 134 130 121 136 128 129 121 118 118 119 118 118 111 109 105 101 94 90 82 90 95 97 105 115 121 123 121 121 121 122 122 109 100 95 91 84 70 57 49
307 221 176 251 240 264 157 158 111 162 140 149 177 178 160 134 164 121 17 81 299 121 182 108 69 69 105 115 112 107 116 132 151 146 152 149 161 152 171 172 190 175 166 180 180 161 155 155 169 161 161 168 161 165 159 149 147 155 150 141 130 126 125 126 129 133 133 134 135 133 126 129 123 105 99 101 100 92 88 93 96 107 121 118 125 125 126 125 122 111 108 105 99 92 81 63 50
189 213 178 233 207 353 7 68 45 41 84 160 165 199 220 168 155 162 160 187 187 174 186 150 142 105 103 122 121 133 141 150 162 162 160 163 175 169 172 176 190 182 169 173 191 178 158 156 162 172 166 176 162 164 151 153 155 162 154 151 138 142 142 143 141 142 149 151 161 157 151 153 123 120 117 102 96 93 94 94 96 99 106 111 121 122 123 128 121 116 113 111 108 103 96 100 53
265 35 199 228 73 83 41 53 72 64 347 140 143 185 255 115 144 126 218 187 171 201 187 176 181 162 155 150 148 145 157 157 175 170 172 172 182 173 176 177 189 201 173 174 178 175 155 157 168 175 165 173 153 163 147 153 167 166 158 163 154 152 157 158 151 156 159 170 179 174 165 125 114 108 106 106 101 96 89 87 91 93 95 96 100 110 122 123 116 114 117 119 114 106 100 72 57
28 122 311 44 313 63 32 53 42 36 22 41 127 84 269 143 118 165 186 277 209 202 206 177 196 176 169 160 155 153 159 162 180 186 178 181 191 187 184 180 186 190 173 161 162 162 154 154 164 179 159 157 162 161 152 175 163 171 159 164 163 162 171 169 164 169 167 182 194 185 133 118 123 123 125 121 114 112 111 112 108 106 107 102 93 90 92 100 100 112 123 98 81 83 81 77 73
179 208 87 17 8 72 20 68 27 5 322 30 85 130 225 87 58 199 227 198 226 211 340 289 189 197 155 158 159 157 161 167 178 191 188 188 188 191 182 173 177 190 159 176 173 158 165 168 172 162 157 148 169 165 166 178 164 179 167 168 166 168 173 175 173 176 173 182 187 168 130 126 128 132 139 137 128 131 132 142 134 137 132 125 125 121 129 132 146 172 139 74 47 53 56 55 61
218 170 81 52 24 86 24 63 13 345 3 93 169 20 29 119 194 196 244 230 140 138 105 82 53 93 141 141 145 162 165 174 180 191 194 191 191 194 187 183 178 188 171 181 171 169 179 186 177 166 182 158 168 175 166 159 175 167 177 167 168 173 176 178 184 183 176 182 165 167 145 138 138 148 154 143 142 149 157 157 147 150 146 142 145 149 150 164 176 129 83 78 70 62 59 62 67
282 54 89 43 25 72 47 90 350 30 356 41 25 285 301 137 252 34 206 226 230 112 110 106 86 99 127 143 163 171 177 178 189 193 194 195 191 192 189 185 180 170 162 176 177 178 185 187 180 179 189 172 170 180 177 165 167 165 170 180 173 174 173 182 179 182 176 178 162 179 156 146 147 160 167 149 152 166 174 159 147 152 158 154 160 159 162 173 133 99 90 85 86 77 76 73 77
210 185 112 126 82 94 84 101 77 46 39 24 15 0 251 255 289 16 261 249 259 162 118 112 114 120 143 145 169 176 180 186 189 192 197 208 199 192 198 194 173 166 177 178 176 178 181 184 187 188 186 193 188 179 194 181 169 162 161 173 183 173 178 178 179 179 181 164 166 178 161 155 158 165 170 153 160 173 176 149 146 163 169 171 157 162 164 150 117 108 111 111 99 92 83 74 73
223 84 112 131 99 113 125 99 99 98 95 23 329 242 241 46 21 265 248 240 222 199 133 137 136 136 171 168 173 176 182 188 187 183 194 194 199 191 195 197 183 179 183 175 179 180 168 177 200 192 183 191 201 186 194 194 182 168 165 175 179 170 186 176 175 181 183 162 170 179 178 167 171 169 169 160 164 177 162 146 149 168 170 166 151 163 164 130 125 128 125 119 111 101 90 79 77
346 131 108 118 130 113 278 131 115 97 29 104 296 294 210 84 103 275 244 230 184 143 154 158 154 179 183 188 181 182 182 186 185 182 170 183 201 202 196 191 196 189 168 177 181 176 165 175 199 195 185 185 195 193 190 195 183 181 164 166 169 180 182 183 182 179 186 175 174 177 180 171 172 171 172 166 166 168 154 151 159 164 158 158 156 162 141 132 133 131 129 123 114 108 99 90 85
117 97 96 96 152 122 142 191 124 126 144 192 276 281 307 164 178 239 210 230 148 162 191 197 189 196 201 201 196 190 189 189 177 166 181 180 194 197 197 191 197 189 174 185 181 177 173 179 191 199 185 177 187 194 190 190 187 179 164 151 164 172 174 185 188 184 185 179 173 179 177 173 175 174 176 177 169 160 159 157 157 155 160 160 158 154 137 136 132 128 116 111 113 107 103 96 88
133 169 138 162 135 173 159 177 167 187 96 247 20 308 271 182 224 234 202 154 160 184 189 200 205 200 207 215 199 193 196 185 174 182 191 191 189 190 198 195 190 194 187 181 178 180 181 177 179 191 178 175 185 188 185 179 182 178 161 163 173 182 185 174 185 187 184 179 175 177 176 177 178 174 185 182 167 162 162 159 157 159 159 159 156 147 137 128 121 111 108 111 106 102 99 96 91
147 254 321 133 178 232 182 152 115 149 106 170 64 328 249 226 225 241 176 161 156 179 206 210 205 199 200 201 204 195 187 184 187 193 192 190 185 188 196 194 189 191 183 172 175 188 178 172 168 181 196 194 184 190 174 176 191 186 166 159 166 180 192 184 180 181 183 183 178 181 181 177 182 179 181 186 169 162 164 165 158 157 157 149 143 140 135 132 127 125 130 117 115 111 113 109 102
169 170 79 248 116 281 154 152 151 176 120 158 78 223 284 305 341 198 147 156 159 204 216 222 219 214 203 198 195 194 196 193 202 193 191 190 185 185 190 188 185 186 180 173 180 185 175 178 176 188 194 204 186 194 184 180 191 196 174 162 162 175 189 190 190 180 183 186 179 184 184 183 184 183 180 182 179 169 169 167 163 157 141 136 136 136 130 132 136 142 142 127 124 117 119 112 110
168 83 277 282 226 76 104 59 152 184 240 216 161 264 257 272 220 50 97 127 184 219 235 229 223 217 202 191 192 192 200 200 210 205 191 191 187 186 182 189 182 182 185 185 179 176 181 178 180 189 189 202 197 191 190 188 194 196 177 172 164 171 183 190 188 188 168 172 181 183 187 188 186 189 182 179 180 176 169 173 169 157 148 144 144 142 138 147 151 152 153 145 135 139 128 118 109
255 164 219 179 209 161 196 239 81 51 114 231 183 237 314 297 132 152 173 162 171 247 264 255 241 238 238 215 190 195 205 210 205 205 196 190 196 187 183 185 189 186 179 179 183 183 180 177 177 188 192 197 202 196 188 189 197 201 190 186 176 173 181 185 176 175 177 170 175 187 189 190 190 196 196 185 180 180 171 173 168 165 157 154 157 154 150 153 156 154 151 160 147 144 137 123 113
220 152 256 276 171 177 203 24 266 125 226 187 217 252 246 265 246 198 253 190 178 200 223 239 244 236 223 213 202 195 199 207 212 198 196 191 195 193 185 187 188 184 180 179 182 186 186 175 179 187 191 192 197 195 184 179 195 208 207 196 186 170 179 181 173 166 177 166 172 185 188 188 190 196 197 183 183 180 175 175 163 162 162 157 157 157 153 146 153 156 149 156 158 142 138 134 126
179 165 216 269 229 270 288 165 175 151 167 272 238 223 249 266 276 267 218 208 197 206 215 225 234 240 245 233 218 208 202 203 216 200 189 188 186 193 191 186 184 179 178 177 178 184 185 176 176 184 183 182 184 174 172 178 193 207 207 201 196 183 177 184 166 169 171 170 176 184 185 189 184 191 193 179 178 179 176 174 164 162 162 159 155 154 145 149 154 153 152 140 117 116 142 134 129
27 113 197 207 181 211 234 80 162 228 176 210 241 253 258 256 258 253 255 221 207 220 226 231 233 233 236 236 233 225 217 217 208 194 185 183 182 184 190 182 182 177 173 175 176 178 182 178 176 182 187 179 180 175 166 178 186 198 202 228 231 203 188 186 179 176 172 184 193 189 189 191 187 187 188 175 169 172 177 175 168 162 163 159 160 155 154 159 161 155 166 150 134 109 104 128 127
25 342 21 317 12 27 76 82 31 343 6 256 241 251 256 261 267 269 264 269 260 250 246 238 228 227 224 228 231 230 227 225 202 194 183 180 181 182 180 171 175 171 174 179 179 184 186 186 175 184 187 180 178 180 178 178 186 193 202 207 212 197 188 169 177 170 175 185 197 203 195 191 189 187 183 177 175 173 177 173 168 170 168 168 168 173 169 167 165 163 154 155 144 135 132 134 132
32 30 6 331 87 302 35 113 191 21 77 283 290 287 264 261 266 268 263 260 255 244 247 246 246 241 233 228 234 234 235 247 209 203 186 174 175 174 167 166 168 171 190 185 189 190 187 184 183 182 180 185 186 185 180 185 191 195 190 196 192 188 184 171 175 172 168 172 194 207 199 190 190 189 182 179 176 173 175 174 171 173 171 176 176 169 159 150 149 151 149 127 152 149 152 159 150
34 45 356 345 296 149 92 65 305 119 93 265 275 294 282 275 279 280 272 258 251 230 226 233 232 237 239 232 232 234 228 229 206 201 181 170 167 165 165 173 183 187 185 188 192 185 183 187 187 179 182 185 188 184 180 190 189 188 186 187 180 184 180 162 147 157 149 170 191 221 212 187 189 185 181 178 174 173 171 171 178 176 177 170 162 154 154 152 157 158 162 155 146 79 129 164 166
17 161 195 245 261 60 291 23 13 243 196 274 351 308 285 275 255 251 251 246 248 238 237 244 226 236 238 234 225 217 218 212 206 194 188 171 166 168 166 179 190 183 184 188 187 190 189 192 186 180 184 187 185 186 183 181 175 165 156 143 149 135 177 156 155 155 170 172 203 216 241 202 182 182 176 173 172 171 169 172 171 177 179 174 172 165 166 166 161 162 164 168 156 146 167 180 193
198 218 227 235 215 113 98 47 269 234 228 28 328 292 281 262 254 259 248 238 246 255 245 247 242 231 235 250 265 226 218 202 206 200 187 173 172 182 186 186 172 182 185 188 190 192 196 195 190 184 181 186 185 178 175 158 143 138 130 94 83 68 49 115 146 167 168 176 189 212 222 227 187 178 178 171 166 169 166 170 173 178 179 180 178 174 176 179 177 178 177 171 176 166 170 175 189
236 202 196 210 265 347 94 50 18 358 331 86 351 354 291 309 304 282 308 28 243 245 221 235 236 236 241 247 243 252 253 226 202 202 194 180 183 187 182 176 182 190 192 195 190 192 187 188 187 180 176 178 182 177 168 156 161 159 158 157 164 177 183 175 194 194 179 190 201 196 206 212 205 169 180 178 172 170 167 171 176 179 183 180 181 181 181 177 180 179 185 181 183 183 166 167 179
154 294 0 0 310 55 93 326 46 316 220 248 197 87 288 305 288 274 292 292 276 260 226 240 239 230 225 229 229 221 221 230 236 225 210 158 187 178 185 183 186 188 204 183 181 186 184 177 181 178 176 174 173 166 165 155 161 173 180 187 187 190 191 208 178 170 185 190 172 184 191 185 187 175 179 180 180 178 173 173 178 186 189 186 177 169 172 182 185 187 178 178 193 177 168 173 180
253 311 331 343 77 108 231 107 165 238 348 293 149 162 228 302 285 264 223 252 266 271 257 250 236 228 228 220 201 205 207 200 187 205 214 198 166 171 180 186 185 192 181 171 175 178 183 179 177 178 172 169 170 156 167 164 167 173 172 183 188 193 196 185 176 188 195 169 175 177 168 184 183 183 184 189 185 179 175 176 180 183 186 189 177 180 178 178 174 182 187 192 182 183 189 190 186
185 232 299 51 60 80 82 127 266 250 45 295 156 177 263 241 276 296 269 270 252 248 251 256 253 243 228 210 160 118 115 113 139 156 150 165 147 166 165 173 184 169 167 170 173 175 177 174 171 170 173 164 166 156 162 167 164 170 170 174 186 198 180 189 169 180 187 173 182 174 173 178 181 184 190 189 190 178 178 179 179 183 185 186 189 182 178 175 181 180 185 189 194 198 199 200 182
253 198 87 104 75 63 67 21 75 321 19 258 174 189 234 263 240 276 290 219 248 249 247 248 255 218 144 102 90 93 86 76 62 100 105 84 82 86 117 146 149 164 160 158 162 162 172 169 170 171 178 162 164 156 162 169 166 166 174 178 182 190 188 196 178 185 185 168 182 177 177 176 183 181 182 189 187 186 180 178 182 184 184 180 183 185 175 178 185 188 192 192 193 194 197 200 194
135 161 104 66 91 103 304 90 86 23 256 254 189 197 184 288 223 212 245 232 200 237 266 52 69 71 73 83 105 122 128 124 133 118 114 113 103 104 95 125 140 128 145 150 159 165 170 170 172 175 181 161 163 162 166 175 173 174 178 179 183 185 189 192 193 184 176 173 180 177 181 183 178 180 166 184 189 184 185 183 183 183 182 176 181 181 182 185 188 190 193 198 199 196 197 199 201
118 132 129 126 330 38 34 331 62 180 261 12 329 188 198 232 280 269 231 344 78 130 28 158 115 114 112 136 148 159 152 163 153 140 150 138 131 129 137 140 143 148 144 157 168 167 172 176 172 177 185 168 164 168 171 174 178 183 179 177 183 187 187 193 198 190 184 186 190 181 177 166 175 169 174 176 194 181 181 189 180 178 178 171 183 185 185 188 189 189 190 194 201 205 205 201 201
3 124 104 108 248 71 315 94 247 202 241 235 345 353 3 248 221 279 313 306 223 203 195 108 134 137 161 175 181 184 175 166 165 160 163 174 187 182 180 178 155 163 173 176 176 173 173 178 178 176 193 176 166 168 177 176 180 189 185 183 184 186 196 196 196 190 187 189 186 175 172 180 163 171 187 186 195 186 182 182 183 186 184 179 180 183 190 186 184 188 193 196 200 201 202 198 203
207 156 151 118 199 212 241 230 205 249 302 275 341 349 257 275 290 212 217 233 251 161 101 126 166 161 145 168 192 191 191 181 172 165 173 185 194 196 194 185 178 171 176 179 177 173 175 176 180 180 193 189 171 169 177 185 191 191 190 190 192 189 201 204 200 188 187 184 179 179 180 182 179 188 181 194 184 180 187 196 195 200 197 188 185 187 186 185 182 186 190 195 201 205 201 202 202
199 192 163 175 161 174 213 177 205 214 211 280 289 66 235 104 241 308 299 328 317 259 243 256 277 211 194 177 190 181 186 184 160 170 185 189 195 185 185 188 190 185 176 176 175 175 172 179 183 185 189 194 183 177 173 184 189 191 193 196 198 198 204 205 206 195 181 183 181 181 185 183 184 187 187 189 177 183 188 189 194 198 196 192 187 182 183 178 179 180 188 199 203 201 204 201 191
224 206 211 239 224 102 207 182 99 282 19 313 231 216 232 192 310 278 284 312 316 311 313 343 313 335 339 293 243 212 188 187 186 195 211 209 192 182 184 187 184 183 181 178 178 175 179 186 186 190 191 190 189 179 179 181 190 189 193 196 201 203 209 206 209 203 195 185 184 185 185 185 188 184 188 176 188 183 184 186 190 198 191 187 187 186 181 180 179 183 190 192 199 190 194 195 184
219 140 216 207 54 136 353 1 33 116 26 255 174 290 264 297 274 252 254 243 255 300 333 323 300 280 262 275 341 143 190 194 202 209 217 221 204 196 190 186 183 177 180 185 184 183 182 180 185 189 192 191 192 187 183 183 184 185 194 192 192 198 202 206 208 208 201 192 183 187 184 190 187 186 185 180 175 180 180 183 185 187 184 185 185 189 185 186 183 185 187 193 198 190 182 182 164
106 196 221 61 45 85 150 217 37 190 214 264 133 243 280 22 291 309 224 243 228 249 263 257 280 284 287 281 294 216 207 206 208 210 219 224 216 205 196 191 187 189 185 183 189 185 183 182 184 185 189 194 197 190 186 185 186 189 192 196 199 197 198 204 210 213 205 194 198 183 170 176 191 187 177 178 171 173 179 179 182 185 185 182 186 183 184 184 179 185 190 196 190 173 171 156 153
125 181 316 134 247 259 254 111 247 240 236 283 258 240 266 232 250 328 11 145 208 224 226 222 234 256 273 281 282 248 167 169 256 284 281 249 213 203 188 186 185 186 191 189 186 181 180 184 187 186 192 196 193 191 183 181 181 186 189 195 197 196 196 192 202 205 203 205 204 196 186 181 174 169 157 158 162 170 172 178 178 183 182 187 180 181 180 175 173 175 179 182 171 166 158 161 164
9 3 39 55 102 171 153 201 241 101 250 222 272 265 261 232 250 135 221 197 196 214 222 199 149 106 111 248 254 339 4 2 332 308 278 230 209 194 177 179 185 184 181 189 187 181 185 186 183 189 189 190 192 192 182 184 187 185 188 187 195 192 193 189 187 192 204 209 207 197 189 183 183 165 165 159 166 170 170 173 178 174 179 180 180 182 178 178 165 169 163 167 173 161 158 157 157
57 48 249 223 118 282 110 310 187 184 216 214 267 285 250 255 197 232 236 218 222 145 95 60 24 293 281 243 127 42 20 324 286 275 275 240 213 187 173 179 185 186 176 177 186 192 188 186 191 189 188 191 197 197 185 190 182 191 184 190 193 194 200 189 186 192 200 201 196 190 188 180 150 175 157 162 166 170 170 175 174 178 180 184 186 183 181 173 171 165 159 161 164 162 157 157 148
184 184 201 190 159 180 204 254 182 185 207 223 221 256 280 247 86 12 49 58 83 54 46 1 349 323 4 131 89 85 280 285 283 264 278 23 52 89 113 113 148 166 195 193 197 184 194 197 194 191 190 198 196 200 193 185 184 186 191 192 192 190 189 185 184 189 196 197 189 184 178 160 170 171 167 168 170 165 170 170 172 178 182 185 187 182 176 170 170 165 165 164 169 166 161 159 155